Погода в Мальцеве

Россия / Орловская область     52°33′51″N   37°32′14″E
темп.,
°C
ветер,
м/с
пор.,
м/с
влажн.,
%
обл.,
%
осадки,
мм/ч
давл.,
гПа
погр.,
м
28 ноября, вс
вс2800:00+3ю51197100 0.1 1005304
03:00+3ю4109886 0.1 1005282
06:00+4ююз3999100 0.0 1005300
09:00+4ююз3798100 0.0 1006177
12:00+6юз369294 0.0 1008315
15:00+6юз348774 0.0 1009256
18:00+6ю348894 0.0 1009111
21:00+5ююв4789100 0.0 1009358
29 ноября, пн
пн2900:00+6юв3788100 0.0 1009218
03:00+4вюв41095100 0.0 1007248
06:00+5вюв51098100 0.2 1004279
09:00+6вюв61497100 6.0 1000534
12:00+7ю51298100 1.2 998411
15:00+8ю51297100 1.2 997519
18:00+8ююв51295100 0.4 995472
21:00+7вюв61297100 1.8 989542
30 ноября, вт
вт3000:00+10ю71595100 10.3 983806
03:00+9ююз91883100 14.2 9801132
06:00+7юз141988100 2.8 9801200
09:00+2юз142394100 3.9 9851211
12:00+2зюз142177100 0.5 9881233
15:00+2зюз132070100 0.5 9901219
18:00+1юз101675100 0.0 9921253
21:00+1юз9157672 0.0 9921086
1 декабря, ср
ср100:00−1зюз7138291 0.0 992846
03:00−1зюз8127993 0.1 9921123
06:00−2зюз81380100 0.1 9921057
09:00−2з71291100 0.3 9941017
12:00−2з81290100 0.8 9951044
15:00−2з81289100 1.6 9971006
18:00−3з81284100 0.3 999901
21:00−4з7128391 0.3 1001784
2 декабря, чт
чт200:00−4зсз6108096 0.0 1003728
03:00−5з498663 0.1 1005516
06:00−5зюз498848 0.0 1006396
09:00−4ююз41084100 0.0 1006366
12:00−1ююз71483100 0.0 1005662
15:000ююз81694100 1.3 1004687
18:00+1юз7159399 0.1 1005607
21:00+1юз61588100 0.1 1005447